Regional Weather Roundup
Issued by NWS Sioux Falls, SD

Home | Current Version | Previous Version | Text Only | Print | Product List | Glossary On
Versions: 1 2 3 4 5 6 7 8 9 10 11 12 13 14 15 16 17 18 19 20 21 22 23 24 25 26 27 28 29 30 31 32 33 34 35 36 37 38 39 40 41 42 43 44 45 46 47 48 49 50
000
ASUS43 KFSD 311610
RWRFSD

WEATHER ROUNDUP FOR SE SOUTH DAKOTA/SW MINNESOTA/NW IOWA
NATIONAL WEATHER SERVICE SIOUX FALLS SD
1100 AM CDT FRI OCT 31 2014

NOTE: "FAIR" INDICATES FEW OR NO CLOUDS BELOW 12,000 FEET WITH NO
SIGNIFICANT WEATHER AND OR OBSTRUCTIONS TO VISIBILITY.


SDZ038>040-050-052>070-311700-
SOUTHEAST SOUTH DAKOTA

CITY           SKY/WX    TMP DP  RH WIND       PRES   REMARKS
CHAMBERLAIN    SUNNY     27  21  76 SE8       30.57F WCI  19
HURON          SUNNY     27  21  78 CALM      30.61S
MADISON        FAIR      28  23  80 E9        30.57S WCI  20
MITCHELL       SUNNY     26  21  81 CALM      30.62R
SIOUX FALLS    MOSUNNY   31  20  63 E10       30.59S WCI  22
WINNER         FAIR      32  19  58 S13       30.53F WCI  22
YANKTON        SUNNY     30  19  64 NE7       30.61S WCI  23
$$

MNZ071-072-080-081-089-090-097-098-311700-
SOUTHWEST MINNESOTA

CITY           SKY/WX    TMP DP  RH WIND       PRES   REMARKS
FAIRMONT       SUNNY     30   7  37 N15G22    30.55S WCI  19
JACKSON        SUNNY     32  19  59 VRB10     30.56S WCI  24
LUVERNE        SUNNY     32  21  64 NE10      30.59R WCI  24
MARSHALL       SUNNY     30  19  64 N9        30.59S WCI  22
MONTEVIDEO     SUNNY     32  25  74 E6        30.61F WCI  26
PIPESTONE      SUNNY     28  19  69 NE12      30.56R WCI  18
REDWOOD FALLS  SUNNY     32  20  61 NE8G18    30.60R WCI  25
TRACY          SUNNY     30  22  71 N12       30.59S WCI  21
WINDOM         SUNNY     30  19  64 N10       30.57R WCI  21
WORTHINGTON    SUNNY     28  19  69 NE14      30.57S WCI  17
$$

IAZ001>003-012>014-020>022-031-032-NEZ013-014-SDZ071-311700-
NORTHWEST IOWA

CITY           SKY/WX    TMP DP  RH WIND       PRES   REMARKS
CHEROKEE       SUNNY     32  21  65 NE13      30.57F WCI  22
DENISON        SUNNY     32  21  64 N13       30.54R WCI  22
ESTHERVILLE    SUNNY     30  17  58 N17G23    30.55S WCI  18
LE MARS        SUNNY     32  21  64 N13       30.60S WCI  22
ORANGE CITY    SUNNY     30  19  64 NE10G16   30.58R WCI  21
SHELDON        SUNNY     32  19  59 NE13      30.56S WCI  22
SIOUX CITY     SUNNY     33  20  58 NE13      30.60S WCI  24
SPENCER        SUNNY     32  19  58 N15G22    30.57R WCI  22
STORM LAKE     FAIR      32  19  59 NE14G20   30.56R WCI  22
$$

ABBREVIATIONS USED IN REMARKS
   TC - TEMPERATURE IN CELSIUS
  WCI - WIND CHILL INDEX
   HX - HEAT INDEX
  VSB - VISIBILITY




USA.gov is the U.S. government's official web portal to all federal, state and local government web resources and services.